Main page
METAR-TAF:

METAR-TAF

Airports :

Srinagar, India

Srinagar International Airport

latitude: 33-59-14N, longitude: 074-46-27E, elevation: 1655 m

Current weather observation

The report was made 1 hour and 50 minutes ago, at 15:30 UTC
Wind 3 kt from the South
Temperature 20°C
Humidity 94%
Pressure 1013 hPa
Visibility: 6000 m
Few clouds at a height of 2500 ft

METAR: VISR 261530Z 19003KT 6000 FEW025 20/19 Q1013 NOSIG

Time: 22:50 (17:20 UTC)


TAF: missing

Weather observations and forecasts of more than 4000 airports (METAR and TAF reports).

The available stations are represented by yellow and red dots on the map.

Hover mouse over dot to see the name of the station.

Then click to see weather observations and forecasts.

To change the map : click on the green buttons with a black cross to zoom in, on the green button with a dash to zoom out, or on the green arrows for adjacent maps.


METAR-TAF: